Date,TemperatureHighF,TemperatureAvgF,TemperatureLowF,DewpointHighF,DewpointAvgF,DewpointLowF,HumidityHigh,HumidityAvg,HumidityLow,PressureMaxIn,PressureMinIn,WindSpeedMaxMPH,WindSpeedAvgMPH,GustSpeedMaxMPH,PrecipitationSumIn
2013-4-1,64.9,49.6,39.9,45.3,36.8,22.8,97,65,33,30.04,29.82,16,4,29,0.01
2013-4-2,48.9,41.5,36.0,21.7,14.5,11.1,48,34,23,30.22,30.04,16,4,22,0.00
2013-4-3,50.0,40.0,30.0,19.6,14.8,11.3,59,37,21,30.41,30.22,12,4,26,0.00
2013-4-4,51.1,38.2,26.1,36.9,18.4,12.0,96,49,24,30.45,30.13,6,2,9,0.09
2013-4-5,64.9,49.0,37.0,39.6,30.8,20.7,96,58,23,30.13,29.97,20,3,21,0.26
2013-4-6,59.0,47.3,36.0,31.1,21.0,15.1,60,37,19,30.42,30.13,7,3,14,0.00
2013-4-7,71.1,54.1,39.0,41.7,35.0,27.9,82,51,29,30.34,30.13,8,3,16,0.00
2013-4-8,82.0,68.0,53.1,49.1,43.8,40.8,68,44,25,30.26,30.13,7,2,11,0.00
2013-4-9,87.1,74.8,63.0,52.9,50.3,48.2,66,44,27,30.29,30.11,11,2,19,0.00
2013-4-10,91.0,79.2,66.9,54.5,51.7,49.8,60,40,25,30.19,29.99,7,2,14,0.00
2013-4-11,87.1,72.7,55.9,60.6,55.5,50.0,92,58,29,30.09,29.93,14,2,21,0.00
2013-4-12,75.0,60.0,52.0,68.5,57.6,51.1,99,92,71,29.93,29.75,10,2,15,0.71
2013-4-13,71.1,57.1,44.1,52.5,39.7,34.5,95,56,27,30.07,29.87,12,2,18,0.00
2013-4-14,68.0,56.5,43.0,46.0,38.5,34.5,86,54,30,30.26,30.04,9,2,15,0.00
2013-4-15,62.1,58.2,54.0,52.0,47.0,41.5,83,67,56,30.40,30.24,6,2,12,0.00
2013-4-16,75.9,63.6,55.0,59.7,54.2,48.2,89,73,48,30.44,30.28,11,2,13,0.00
2013-4-17,78.1,66.3,57.9,64.4,58.5,54.5,98,78,52,30.38,30.24,8,1,11,0.02
2013-4-18,79.0,65.7,57.9,63.5,58.6,55.0,98,80,49,30.36,30.15,8,2,12,0.11
2013-4-19,77.0,66.5,50.0,66.9,61.0,49.1,98,84,61,30.15,29.77,9,2,23,0.93
2013-4-20,60.1,52.1,45.0,49.1,30.5,24.8,97,46,27,30.40,29.87,11,4,25,0.01
2013-4-21,57.0,46.8,37.9,32.4,24.3,19.0,61,42,25,30.67,30.41,6,2,12,0.00
2013-4-22,57.0,46.9,34.0,37.0,35.3,32.7,95,66,46,30.63,30.48,7,2,12,0.00
2013-4-23,63.0,51.6,45.0,44.2,41.7,36.1,90,70,47,30.48,30.21,5,1,10,0.00
2013-4-24,79.0,61.9,45.0,54.3,49.0,43.0,97,67,36,30.21,29.99,8,2,26,0.00
2013-4-25,68.0,55.0,44.1,48.9,33.3,25.5,79,46,21,30.41,30.11,12,3,26,0.00
2013-4-26,66.9,55.5,45.0,40.5,35.1,29.3,80,49,27,30.59,30.38,6,1,11,0.00
2013-4-27,73.9,59.7,44.1,44.6,38.0,34.5,86,49,26,30.58,30.40,4,1,6,0.00
2013-4-28,66.9,57.3,48.0,52.5,42.7,34.5,85,61,31,30.42,30.27,5,1,9,0.01
2013-4-29,59.0,55.1,52.0,58.5,53.6,43.5,98,95,63,30.28,30.17,5,2,9,0.33
2013-4-30,57.9,55.2,54.0,57.4,53.5,46.6,98,94,71,30.39,30.19,6,1,8,0.12